Weather History for Jask, Iran

Change the Weather History Date:

Wednesday, February 6, 2013

  Actual Average Record
Temperature  
Mean Temperature 68 °F -  
Max Temperature 77 °F - - ()
Min Temperature 60 °F - - ()
Cooling Degree Days 4    
Growing Degree Days 18 (Base 50)    
Moisture  
Dew Point 51 °F    
Average Humidity 51    
Maximum Humidity 64    
Minimum Humidity 30    
Precipitation  
Precipitation 0.00 in - - ()
Sea Level Pressure  
Sea Level Pressure 30.17 in    
Wind  
Wind Speed 8 mph ()    
Max Wind Speed 14 mph    
Max Gust Speed -    
Visibility 6.8 miles    
Events      
T = Trace of Precipitation, MM = Missing Value Source: Averaged Metar Reports

Daily Weather History Graph

Daily Weather History Graph

Search for Another Location

Airport:

Trip Planner

Search our weather history database for the weather conditions in past years. The results will help you decide how hot, cold, wet, or windy it might be!

Date:

Astronomy

Feb. 06, 2013 Rise Set
Actual Time 6:19 AM IRST 5:26 PM IRST
Civil Twilight 5:56 AM IRST 5:50 PM IRST
Nautical Twilight 5:28 AM IRST 6:17 PM IRST
Astronomical Twilight 5:01 AM IRST 6:44 PM IRST
Moon 2:27 AM IRST (2/6) 1:29 PM IRST (2/6)
Length of Visible Light 11h 54m
Length of Day
11h 06m
Waning Crescent, 20% of the Moon is Illuminated
Feb 6
Waning Crescent
Feb 10
New
Feb 18
First Quarter
Feb 25
Full
Mar 5
Last Quarter

Hourly Weather History & Observations

Time (IRST) Temp. Dew Point Humidity Pressure Visibility Wind Dir Wind Speed Gust Speed Precip Events Conditions
12:20 AM 66.2 °F 51.8 °F 60% 30.15 in - NW 11.5 mph - N/A   Clear
12:30 AM 66.2 °F 51.8 °F 60% 30.15 in - NW 11.5 mph - N/A   Clear
3:20 AM 64.4 °F 51.8 °F 64% 30.12 in - NNW 13.8 mph - N/A   Clear
3:30 AM 64 °F 51 °F 53% 30.16 in 6 mi NNW 13.4 mph - -  
3:30 AM 64.4 °F 51.8 °F 64% 30.12 in - NNW 13.8 mph - N/A   Clear
5:30 AM 62.6 °F 48.2 °F 59% 30.15 in - NNW 9.2 mph - N/A   Clear
6:30 AM 60.8 °F 46.4 °F 59% 30.15 in - NNW 6.9 mph - N/A   Clear
7:30 AM 62.6 °F 48.2 °F 59% 30.18 in - NNW 9.2 mph - N/A   Clear
8:30 AM 64.4 °F 48.2 °F 56% 30.21 in - North 6.9 mph - N/A   Clear
9:30 AM 66 °F 48 °F 42% 30.25 in 6 mi NNW 4.5 mph - -  
9:30 AM 66.2 °F 48.2 °F 52% 30.21 in - NNW 4.6 mph - N/A   Clear
11:20 AM 71.6 °F 46.4 °F 41% 30.21 in - WNW 6.9 mph - N/A   Clear
11:30 AM 71.6 °F 46.4 °F 41% 30.21 in - WNW 6.9 mph - N/A   Clear
12:20 PM 73.4 °F 46.4 °F 38% 30.18 in - WSW 9.2 mph - N/A   Clear
12:30 PM 73.4 °F 46.4 °F 38% 30.18 in - WSW 9.2 mph - N/A   Clear
1:30 PM 75.2 °F 48.2 °F 38% 30.15 in - West 6.9 mph - N/A   Clear
2:20 PM 75.2 °F 51.8 °F 44% 30.15 in - WSW 9.2 mph - N/A   Clear
2:30 PM 75.2 °F 51.8 °F 44% 30.15 in - WSW 9.2 mph - N/A   Clear
3:30 PM 77 °F 52 °F 30% 30.17 in 9 mi West 8.9 mph - -  
3:30 PM 77.0 °F 51.8 °F 41% 30.15 in - West 9.2 mph - N/A   Clear
4:30 PM 75.2 °F 53.6 °F 47% 30.15 in - West 9.2 mph - N/A   Clear
5:20 PM 73.4 °F 55.4 °F 53% 30.15 in - West 6.9 mph - N/A   Clear
5:30 PM 73.4 °F 55.4 °F 53% 30.15 in - West 6.9 mph - N/A   Clear
6:20 PM 69.8 °F 53.6 °F 56% 30.15 in - West 6.9 mph - N/A   Clear
6:30 PM 69.8 °F 53.6 °F 56% 30.15 in - West 6.9 mph - N/A   Clear
7:20 PM 69.8 °F 53.6 °F 56% 30.18 in - West 4.6 mph - N/A   Clear
8:20 PM 68.0 °F 53.6 °F 60% 30.18 in - Calm Calm - N/A   Clear
8:30 PM 68.0 °F 53.6 °F 60% 30.18 in - Calm Calm - N/A   Clear
9:30 PM 67 °F 54 °F 55% 30.20 in 6 mi North 4.5 mph - -  
9:30 PM 68.0 °F 55.4 °F 64% 30.18 in - North 4.6 mph - N/A   Clear